Galena, AK

10:23 PM AKDT on October 18, 2017 (GMT -0800)
Pitka

Weather History for PAGA - October, 2012

Change the Weather History Date:

Saturday, October 13, 2012

  Actual Average Record
Temperature  
Mean Temperature 25 °F -  
Max Temperature 32 °F 32 °F 49 °F (1969)
Min Temperature 18 °F 21 °F -5 °F (1996)
Degree Days  
Heating Degree Days 40    
Moisture  
Dew Point 12 °F    
Average Humidity 58    
Maximum Humidity 74    
Minimum Humidity 44    
Precipitation  
Precipitation 0.00 in - - ()
Sea Level Pressure  
Sea Level Pressure 29.61 in    
Wind  
Wind Speed 8 mph (NNE)    
Max Wind Speed 14 mph    
Max Gust Speed 23 mph    
Visibility 10 miles    
Events      
Averages and records for this station are not official NWS values.
T = Trace of Precipitation, MM = Missing Value Source: NWS Daily Summary

Daily Weather History Graph

Daily Weather History Graph

Search for Another Location

Airport or City:

Trip Planner

Search our weather history database for the weather conditions in past years. The results will help you decide how hot, cold, wet, or windy it might be!

Date:

Astronomy

Oct. 13, 2012 Rise Set
Actual Time 9:15 AM AKDT 7:10 PM AKDT
Civil Twilight 8:26 AM AKDT 7:59 PM AKDT
Nautical Twilight 7:29 AM AKDT 8:56 PM AKDT
Astronomical Twilight 6:31 AM AKDT 9:53 PM AKDT
Moon 6:51 AM AKDT (10/13) 6:15 PM AKDT (10/13)
Length of Visible Light 11h 33m
Length of Day
9h 54m
Waning Crescent, 4% of the Moon is Illuminated
Oct 13
Waning Crescent
Oct 15
New
Oct 21
First Quarter
Oct 29
Full
Nov 6
Last Quarter

Hourly Weather History & Observations

Time (AKDT) Temp. Windchill Dew Point Humidity Pressure Visibility Wind Dir Wind Speed Gust Speed Precip Events Conditions
12:58 AM 26.1 °F 16.8 °F 12.9 °F 58% 29.63 in 10.0 mi North 9.2 mph 16.1 mph N/A   Clear
1:58 AM 25.0 °F 18.1 °F 12.0 °F 58% 29.63 in 10.0 mi NNE 5.8 mph - N/A   Clear
2:58 AM 24.1 °F 14.4 °F 12.0 °F 60% 29.64 in 10.0 mi NNE 9.2 mph - N/A   Clear
3:58 AM 23.0 °F 15.8 °F 10.9 °F 60% 29.63 in 10.0 mi ENE 5.8 mph - N/A   Clear
4:58 AM 23.0 °F 13.1 °F 10.9 °F 60% 29.64 in 10.0 mi NNE 9.2 mph - N/A   Clear
5:58 AM 21.9 °F 13.4 °F 10.9 °F 63% 29.64 in 10.0 mi NE 6.9 mph - N/A   Clear
6:58 AM 21.0 °F 14.6 °F 10.0 °F 63% 29.64 in 10.0 mi NNE 4.6 mph - N/A   Clear
7:58 AM 21.0 °F 11.4 °F 10.0 °F 63% 29.64 in 10.0 mi North 8.1 mph 17.3 mph N/A   Clear
8:58 AM 19.0 °F 7.5 °F 10.0 °F 68% 29.64 in 10.0 mi North 10.4 mph 16.1 mph N/A   Clear
9:58 AM 18.0 °F 6.9 °F 10.9 °F 74% 29.64 in 10.0 mi North 9.2 mph 16.1 mph N/A   Clear
10:58 AM 19.9 °F 8.6 °F 10.9 °F 68% 29.65 in 10.0 mi NNE 10.4 mph 16.1 mph N/A   Clear
11:58 AM 23.0 °F 12.4 °F 12.0 °F 63% 29.63 in 9.0 mi North 10.4 mph 17.3 mph N/A   Clear
12:58 PM 27.0 °F 19.5 °F 12.9 °F 56% 29.62 in 10.0 mi Variable 6.9 mph 19.6 mph N/A   Clear
1:58 PM 28.9 °F 19.2 °F 12.0 °F 49% 29.61 in 10.0 mi NNE 11.5 mph 20.7 mph N/A   Clear
2:58 PM 30.9 °F 23.5 °F 12.0 °F 46% 29.60 in 10.0 mi North 8.1 mph 21.9 mph N/A   Clear
3:58 PM 32.0 °F 23.6 °F 12.9 °F 45% 29.58 in 10.0 mi North 10.4 mph 19.6 mph N/A   Clear
4:58 PM 32.0 °F 22.1 °F 12.0 °F 44% 29.57 in 10.0 mi North 13.8 mph 23.0 mph N/A   Clear
5:58 PM 30.9 °F 23.5 °F 12.0 °F 46% 29.57 in 10.0 mi North 8.1 mph 16.1 mph N/A   Clear
6:58 PM 30.0 °F 22.4 °F 12.0 °F 47% 29.57 in 10.0 mi North 8.1 mph - N/A   Clear
7:58 PM 28.0 °F 20.8 °F 12.0 °F 51% 29.56 in 10.0 mi North 6.9 mph - N/A   Clear
8:58 PM 26.1 °F 20.5 °F 12.0 °F 55% 29.56 in 10.0 mi North 4.6 mph - N/A   Clear
9:58 PM 23.0 °F 18.4 °F 12.0 °F 63% 29.55 in 10.0 mi North 3.5 mph - N/A   Clear
10:58 PM 21.9 °F 15.7 °F 12.0 °F 66% 29.55 in 10.0 mi NNE 4.6 mph - N/A   Clear
11:58 PM 19.9 °F 13.4 °F 12.0 °F 71% 29.55 in 10.0 mi North 4.6 mph - N/A   Clear